Regional Weather Roundup
Issued by NWS

Home | Current Version | Previous Version | Graphics & Text | Print | Product List | Glossary On
Versions: 1 2 3 4 5 6 7 8 9 10 11 12 13 14 15 16 17 18 19 20 21 22 23 24 25 26 27 28 29 30 31 32 33 34 35 36 37 38 39 40 41 42 43 44 45 46 47 48 49 50
000
ASUS43 KIND 262209
RWRIN

WEATHER ROUNDUP FOR INDIANA
NATIONAL WEATHER SERVICE INDIANAPOLIS IN
500 PM EST SUN FEB 26 2017

NOTE: "FAIR" INDICATES FEW OR NO CLOUDS BELOW 12,000 FEET WITH NO
SIGNIFICANT WEATHER AND/OR OBSTRUCTIONS TO VISIBILITY.

* - STATION DOES NOT REPORT WEATHER SUCH AS PRECIPITATION OR FOG.

+ - STATION NOT QUALITY CONTROLLED BY THE NATIONAL WEATHER SERVICE.
    USE DATA WITH CAUTION...ESPECIALLY DEWPOINT AND RELATIVE
    HUMIDITY OBSERVATIONS.

INZ001>003-010>013-019-020-262300-
NORTHWEST INDIANA

CITY           SKY/WX    TMP DP  RH WIND       PRES   REMARKS
GARY /AIRPORT/ MOSUNNY   48  12  23 SW20G32   29.97R
KNOX *+        CLOUDY    45  -9  10 SW16G22   29.99S
LA PORTE +     PTSUNNY   46  20  35 SW17G28   29.98S
MICHIGAN CITY+ PTSUNNY   45  21  39 SW18G24   29.98R
MONTICELLO +   SUNNY     46  17  30 SW21G26   30.02S
RENSSELAER +   PTSUNNY   48  18  29 SW23G29   30.01R
VALPARAISO     CLOUDY    49  19  30 SW23G30   29.98S

$$

LMZ046-743>745-262300-
SOUTHERN LAKE MICHIGAN

STATION/POSITION TIME  TEMP    WIND        PRES    WAVE
                       AIR SEA DIR/SP/G            HT
                 (UTC) (F)     (DEG/KT/KT) (MB)    (FT)
BURNS HARBOR     2140   46     220/ 16/ 26 1015.2R
MICHIGAN CITY    2140   44     220/ 19/ 20   N/A

$$

INZ004-005-014>016-021>024-262300-
NORTH CENTRAL INDIANA

CITY           SKY/WX    TMP DP  RH WIND       PRES   REMARKS
ELKHART        SUNNY     45  19  36 SW10G23   29.98S
GOSHEN         PTSUNNY   44  20  38 SW21G28   29.99S
LOGANSPORT +   SUNNY     45  21  39 SW16G28   30.05R
PERU/GRISSOM   SUNNY     45  19  34 SW23G29   30.03R
ROCHESTER +    MOSUNNY   46  18  31 SW17G25   30.03R
SOUTH BEND     CLOUDY    45  19  35 SW18G26   29.98R
WARSAW +       MOSUNNY   43  19  39 SW10G21   30.02R

$$

INZ006>009-017-018-025>027-262300-
NORTHEAST INDIANA

CITY           SKY/WX    TMP DP  RH WIND       PRES   REMARKS
ANGOLA *+      SUNNY     43  30  61 SW17      29.99S
AUBURN +       SUNNY     43  18  36 SW16G25   30.03S
FORT WAYNE     MOSUNNY   44  19  36 SW23      30.04S
HUNTINGTON +   SUNNY     44  19  36 SW15G25   30.05S
KENDALLVILLE + SUNNY     43  22  43 SW18G24   30.01R

$$

INZ028-029-035-036-043>045-051>053-262300-
WEST CENTRAL INDIANA

CITY           SKY/WX    TMP DP  RH WIND       PRES   REMARKS
LAFAYETTE      SUNNY     44  18  35 SW15G24   30.05S
TERRE HAUTE    PTSUNNY   46  15  28 SW12      30.10S

$$

INZ030>032-037>040-046>048-054>057-064-065-262300-
CENTRAL INDIANA

CITY           SKY/WX    TMP DP  RH WIND       PRES   REMARKS
CP ATTERBURY + PTSUNNY   46  12  25 SW12      30.12S
COLUMBUS       PTSUNNY   46  14  27 SW17      30.13S
FISHERS *+     MOSUNNY   43  21  42 SW15      30.09S
FRANKFORT +    MOSUNNY   44  24  43 SW16      30.08R
GREENWOOD *+   CLOUDY    47  13  26 SW13      30.10S
INDIANAPOLIS   CLOUDY    45  14  28 SW15      30.09S
-EAGLE CREEK   MOSUNNY   45  14  28 SW9G21    30.09S
KOKOMO +       SUNNY     45  19  35 SW21G28   30.07R
MARION +       SUNNY     42  21  44 SW17G26   30.07S
MT COMFORT *+  PTSUNNY   45  14  29 S12       30.09S
SHELBYVILLE    PTSUNNY   48  13  24 SW16      30.10S
ZIONSVILLE +   MOSUNNY   42  20  41 SW17      30.08S

$$

INZ033-034-041-042-049-050-058-059-262300-
EAST CENTRAL INDIANA

CITY           SKY/WX    TMP DP  RH WIND       PRES   REMARKS
MUNCIE         MOSUNNY   45  12  26 SW13G25   30.07S

$$

INZ060-061-067>069-081>083-085>088-262300-
SOUTHWEST INDIANA

CITY           SKY/WX    TMP DP  RH WIND       PRES   REMARKS
EVANSVILLE     MOSUNNY   50  15  24 S9        30.14S
HUNTINGBURG *+ CLOUDY    49  15  25 SW12      30.14S
WASHINGTON +   CLOUDY    48  10  21 SW15      30.13R

$$

INZ062-063-066-070>080-084-089>092-262300-
SOUTH CENTRAL AND SOUTHEAST INDIANA

CITY           SKY/WX    TMP DP  RH WIND       PRES   REMARKS
BEDFORD +      PTSUNNY   48   7  18 SW8       30.12S
BLOOMINGTON    CLOUDY    47  13  25 SW12      30.11S
MADISON *+     MOSUNNY   46  12  25 S9        30.16S
NORTH VERNON + SUNNY     46  18  31 SW6       30.13F
SEYMOUR +      MOSUNNY   50  19  29 SW10      30.13

$$





USA.gov is the U.S. government's official web portal to all federal, state and local government web resources and services.